Weather History for Fort Morgan, CO

Change the Weather History Date:

Tuesday, May 21, 2013

  Actual Average (KAKO) Record (KAKO)
Temperature  
Mean Temperature 56 °F 59 °F  
Max Temperature 70 °F 72 °F 90 °F (1964)
Min Temperature 43 °F 45 °F 32 °F (1974)
Degree Days  
Heating Degree Days 8    
Month to date heating degree days  
Cooling Degree Days 0    
Month to date cooling degree days  
Growing Degree Days 6 (Base 50)    
Moisture  
Dew Point 32 °F    
Average Humidity 46    
Maximum Humidity 75    
Minimum Humidity 19    
Precipitation  
Precipitation 0.00 in 0.11 in 1.38 in (1961)
Month to date precipitation 1.88  
Year to date precipitation 5.14  
Sea Level Pressure  
Sea Level Pressure 29.97 in    
Wind  
Wind Speed 17 mph (NNW)    
Max Wind Speed 28 mph    
Max Gust Speed 34 mph    
Visibility 10 miles    
Events      
T = Trace of Precipitation, MM = Missing Value Source: NWS Daily Summary

Daily Weather History Graph

Daily Weather History Graph

Search for Another Location

Airport:

Trip Planner

Search our weather history database for the weather conditions in past years. The results will help you decide how hot, cold, wet, or windy it might be!

Date:

Astronomy

May. 21, 2013 Rise Set
Actual Time 5:33 AM MDT 8:10 PM MDT
Civil Twilight 5:02 AM MDT 8:41 PM MDT
Nautical Twilight 4:23 AM MDT 9:21 PM MDT
Astronomical Twilight 3:39 AM MDT 10:05 PM MDT
Moon 4:26 PM MDT (5/21) 3:03 AM MDT (5/21)
Length of Visible Light 15h 39m
Length of Day
14h 36m
Waxing Gibbous, 84% of the Moon is Illuminated
May 21
Waxing Gibbous
May 24
Full
May 31
Last Quarter
Jun 8
New
Jun 16
First Quarter

Hourly Weather History & Observations

Time (MDT) Temp. Windchill Dew Point Humidity Pressure Visibility Wind Dir Wind Speed Gust Speed Precip Events Conditions
12:15 AM 45.9 °F 39.4 °F 33.8 °F 63% 30.00 in 10.0 mi NNW 15.0 mph - N/A   Scattered Clouds
12:35 AM 45.7 °F 38.3 °F 34.0 °F 64% 30.00 in 10.0 mi NNW 18.4 mph 21.9 mph N/A   Clear
12:55 AM 46.0 °F 39.0 °F 34.7 °F 65% 30.01 in 10.0 mi NNW 17.3 mph 20.7 mph N/A   Mostly Cloudy
1:15 AM 45.5 °F 38.9 °F 34.7 °F 66% 30.01 in 10.0 mi NNW 15.0 mph - N/A   Mostly Cloudy
1:35 AM 45.5 °F 38.9 °F 34.7 °F 66% 30.01 in 10.0 mi NNW 15.0 mph 20.7 mph N/A   Mostly Cloudy
1:55 AM 45.7 °F 38.8 °F 34.9 °F 66% 30.01 in 10.0 mi NNW 16.1 mph 21.9 mph N/A   Mostly Cloudy
2:15 AM 45.7 °F 39.1 °F 35.4 °F 67% 30.00 in 10.0 mi NW 15.0 mph - N/A   Mostly Cloudy
2:35 AM 46.4 °F 39.8 °F 35.6 °F 66% 30.00 in 10.0 mi NNW 16.1 mph - N/A   Overcast
2:55 AM 46.6 °F - 35.6 °F 66% 30.00 in 10.0 mi NNW 16.1 mph - N/A   Overcast
3:15 AM 46.9 °F - 35.6 °F 65% 30.00 in 10.0 mi NW 21.9 mph 27.6 mph N/A   Mostly Cloudy
3:35 AM 47.1 °F - 35.6 °F 64% 30.00 in 10.0 mi NW 17.3 mph - N/A   Overcast
3:55 AM 46.4 °F 39.2 °F 35.8 °F 67% 30.00 in 10.0 mi NNW 18.4 mph - N/A   Mostly Cloudy
4:15 AM 45.5 °F 38.6 °F 36.0 °F 69% 30.01 in 10.0 mi NNW 16.1 mph 21.9 mph N/A   Scattered Clouds
4:35 AM 45.1 °F 37.9 °F 36.5 °F 72% 30.01 in 10.0 mi NNW 17.3 mph - N/A   Mostly Cloudy
4:55 AM 45.0 °F - 36.5 °F 72% 30.01 in 10.0 mi North - - N/A   Mostly Cloudy
5:15 AM 44.1 °F 37.7 °F 36.3 °F 74% 30.01 in 10.0 mi NW 12.7 mph - N/A   Scattered Clouds
5:35 AM 43.5 °F 37.5 °F 36.1 °F 75% 30.02 in 10.0 mi NW 11.5 mph - N/A   Clear
5:55 AM 44.2 °F 37.6 °F 36.5 °F 74% 30.03 in 10.0 mi NW 13.8 mph - N/A   Clear
6:15 AM 44.2 °F 38.4 °F 36.5 °F 74% 30.04 in 10.0 mi NW 11.5 mph - N/A   Clear
6:35 AM 46.6 °F - 37.2 °F 70% 30.04 in 10.0 mi NW 12.7 mph - N/A   Clear
6:55 AM 48.2 °F - 37.4 °F 66% 30.04 in 10.0 mi NW 11.5 mph - N/A   Clear
7:15 AM 49.6 °F - 37.2 °F 62% 30.04 in 10.0 mi WNW 12.7 mph - N/A   Scattered Clouds
7:35 AM 51.4 °F - 36.9 °F 58% 30.04 in 10.0 mi NW 13.8 mph 17.3 mph N/A   Mostly Cloudy
7:55 AM 52.7 °F - 35.2 °F 52% 30.04 in 10.0 mi NW 17.3 mph 24.2 mph N/A   Clear
8:15 AM 53.6 °F - 34.9 °F 49% 30.04 in 10.0 mi WNW 19.6 mph 26.5 mph N/A   Clear
8:35 AM 55.4 °F - 34.9 °F 46% 30.04 in 10.0 mi WNW 23.0 mph 29.9 mph N/A   Clear
8:55 AM 55.6 °F - 33.8 °F 44% 30.03 in 10.0 mi NW 21.9 mph 28.8 mph N/A   Clear
9:15 AM 57.6 °F - 34.0 °F 41% 30.03 in 10.0 mi NW 23.0 mph 27.6 mph N/A   Clear
9:35 AM 57.9 °F - 32.2 °F 38% 30.02 in 10.0 mi NW 25.3 mph 31.1 mph N/A   Clear
9:55 AM 59.2 °F - 30.9 °F 34% 30.02 in 10.0 mi NW 23.0 mph 28.8 mph N/A   Clear
10:15 AM 59.9 °F - 30.4 °F 33% 30.00 in 10.0 mi WNW 26.5 mph 29.9 mph N/A   Clear
10:35 AM 60.6 °F - 29.8 °F 31% 30.00 in 10.0 mi WNW 24.2 mph 29.9 mph N/A   Clear
10:55 AM 61.9 °F - 30.4 °F 31% 30.00 in 10.0 mi NW 20.7 mph 26.5 mph N/A   Clear
11:15 AM 62.4 °F - 29.7 °F 29% 29.99 in 10.0 mi NW 17.3 mph 25.3 mph N/A   Clear
11:35 AM 63.3 °F - 28.2 °F 27% 29.98 in 10.0 mi NW 17.3 mph 31.1 mph N/A   Clear
11:55 AM 65.1 °F - 29.1 °F 26% 29.96 in 10.0 mi NW 20.7 mph 29.9 mph N/A   Clear
12:15 PM 65.3 °F - 26.8 °F 23% 29.96 in 10.0 mi NW 21.9 mph 32.2 mph N/A   Clear
12:35 PM 66.2 °F - 27.0 °F 23% 29.95 in 10.0 mi NNW 25.3 mph 33.4 mph N/A   Clear
12:55 PM 66.9 °F - 26.8 °F 22% 29.93 in 10.0 mi NNW 21.9 mph 32.2 mph N/A   Clear
1:15 PM 66.9 °F - 28.6 °F 24% 29.92 in 10.0 mi NNW 23.0 mph 34.5 mph N/A   Scattered Clouds
1:35 PM 67.8 °F - 29.7 °F 24% 29.92 in 10.0 mi NW 20.7 mph 32.2 mph N/A   Scattered Clouds
1:55 PM 69.1 °F - 28.9 °F 22% 29.91 in 10.0 mi NW 26.5 mph - N/A   Scattered Clouds
2:15 PM 68.5 °F - 26.2 °F 20% 29.91 in 10.0 mi NW 21.9 mph 31.1 mph N/A   Scattered Clouds
2:35 PM 69.4 °F - 27.9 °F 21% 29.90 in 10.0 mi NNW 26.5 mph 34.5 mph N/A   Clear
2:55 PM 70.0 °F - 27.5 °F 20% 29.89 in 10.0 mi NW 24.2 mph 32.2 mph N/A   Scattered Clouds
3:15 PM 70.3 °F - 26.1 °F 19% 29.89 in 10.0 mi NNW 27.6 mph 34.5 mph N/A   Scattered Clouds
3:35 PM 70.0 °F - 27.1 °F 20% 29.89 in 10.0 mi NNW 25.3 mph 33.4 mph N/A   Scattered Clouds
3:55 PM 70.2 °F - 26.4 °F 19% 29.88 in 10.0 mi NNW 20.7 mph 33.4 mph N/A   Scattered Clouds
4:15 PM 68.7 °F - 26.2 °F 20% 29.88 in 10.0 mi NNW 24.2 mph 29.9 mph N/A   Scattered Clouds
4:35 PM 68.2 °F - 26.6 °F 21% 29.88 in 10.0 mi NNW 19.6 mph 31.1 mph N/A   Scattered Clouds
4:55 PM 67.8 °F - 26.1 °F 21% 29.88 in 10.0 mi NNW 19.6 mph 28.8 mph N/A   Mostly Cloudy
5:15 PM 68.0 °F - 27.3 °F 22% 29.88 in 10.0 mi North 17.3 mph 28.8 mph N/A   Overcast
5:35 PM 67.5 °F - 28.2 °F 23% 29.88 in 10.0 mi North 19.6 mph 23.0 mph N/A   Overcast
5:55 PM 66.6 °F - 28.8 °F 24% 29.88 in 10.0 mi North 15.0 mph - N/A   Mostly Cloudy
6:15 PM 67.6 °F - 29.1 °F 24% 29.88 in 10.0 mi North 15.0 mph 21.9 mph N/A   Mostly Cloudy
6:35 PM 66.0 °F - 29.3 °F 25% 29.88 in 10.0 mi North 17.3 mph - N/A   Overcast
6:55 PM 64.4 °F - 30.2 °F 28% 29.89 in 10.0 mi North 21.9 mph 28.8 mph N/A   Scattered Clouds
7:15 PM 63.0 °F - 30.2 °F 29% 29.90 in 10.0 mi North 20.7 mph - N/A   Clear
7:35 PM 61.2 °F - 30.7 °F 32% 29.90 in 10.0 mi NNE 16.1 mph 20.7 mph N/A   Clear
7:55 PM 59.0 °F - 30.7 °F 34% 29.91 in 10.0 mi NE 15.0 mph - N/A   Scattered Clouds
8:15 PM 56.3 °F - 33.3 °F 42% 29.93 in 10.0 mi ENE 9.2 mph - N/A   Scattered Clouds
8:35 PM 53.1 °F - 34.2 °F 49% 29.95 in 10.0 mi East 6.9 mph - N/A   Mostly Cloudy
8:55 PM 52.0 °F - 34.3 °F 51% 29.95 in 10.0 mi East 8.1 mph - N/A   Mostly Cloudy
9:15 PM 50.2 °F - 34.2 °F 54% 29.96 in 10.0 mi ENE 6.9 mph - N/A   Scattered Clouds
9:35 PM 49.3 °F - 34.0 °F 56% 29.97 in 10.0 mi ENE 8.1 mph - N/A   Scattered Clouds
9:55 PM 47.3 °F - 33.8 °F 59% 29.98 in 10.0 mi East 6.9 mph - N/A   Clear
10:15 PM 46.6 °F - 33.8 °F 61% 29.99 in 10.0 mi East 6.9 mph - N/A   Clear
10:35 PM 44.8 °F 41.6 °F 33.6 °F 65% 29.99 in 10.0 mi ENE 5.8 mph - N/A   Clear
10:55 PM 44.2 °F 41.8 °F 33.8 °F 67% 29.99 in 10.0 mi ENE 4.6 mph - N/A   Clear
11:15 PM 45.3 °F - 34.2 °F 65% 30.00 in 10.0 mi Calm Calm - N/A   Clear
11:35 PM 46.0 °F 43.1 °F 35.2 °F 66% 30.00 in 10.0 mi SE 5.8 mph - N/A   Clear
11:55 PM 45.0 °F 43.5 °F 35.1 °F 68% 30.01 in 10.0 mi SSW 3.5 mph - N/A   Clear